Charlottesville, VA

8:15 PM EST on February 25, 2017 (GMT -0500)
Charlottesville-Albemarle

Weather History for KCHO - May, 2013

Change the Weather History Date:

Friday, May 24, 2013

  Actual Average Record
Temperature  
Mean Temperature 56 °F 65 °F  
Max Temperature 63 °F 77 °F 92 °F (1936)
Min Temperature 48 °F 54 °F 40 °F (2006)
Degree Days  
Heating Degree Days 9 2  
Month to date heating degree days 120 108  
Since 1 July heating degree days 4179 4420  
Cooling Degree Days 0 3  
Month to date cooling degree days 66 41  
Year to date cooling degree days 110 62  
Growing Degree Days 6 (Base 50)    
Moisture  
Dew Point 44 °F    
Average Humidity 67    
Maximum Humidity 97    
Minimum Humidity 37    
Precipitation  
Precipitation T in 0.15 in 0.54 in (2005)
Month to date precipitation 4.35 2.93  
Year to date precipitation 16.63 15.42  
Sea Level Pressure  
Sea Level Pressure 29.97 in    
Wind  
Wind Speed 8 mph (NNW)    
Max Wind Speed 21 mph    
Max Gust Speed 39 mph    
Visibility 10 miles    
Events      
T = Trace of Precipitation, MM = Missing Value Source: NWS Daily Summary

Daily Weather History Graph

Daily Weather History Graph

Search for Another Location

Airport or City:

Trip Planner

Search our weather history database for the weather conditions in past years. The results will help you decide how hot, cold, wet, or windy it might be!

Date:

Astronomy

May. 24, 2013 Rise Set
Actual Time 5:56 AM EDT 8:25 PM EDT
Civil Twilight 5:25 AM EDT 8:55 PM EDT
Nautical Twilight 4:48 AM EDT 9:33 PM EDT
Astronomical Twilight 4:06 AM EDT 10:15 PM EDT
Moon 8:05 PM EDT (5/24) 5:26 AM EDT (5/24)
Length of Visible Light 15h 29m
Length of Day
14h 29m
Full, 100% of the Moon is Illuminated
May 24
Full
May 25
Full
May 31
Last Quarter
Jun 8
New
Jun 16
First Quarter

Hourly Weather History & Observations

Time (EDT) Temp. Dew Point Humidity Pressure Visibility Wind Dir Wind Speed Gust Speed Precip Events Conditions
12:53 AM - - N/A% 29.81 in - North - - N/A   Unknown
1:53 AM 62.1 °F 61.0 °F 96% 29.79 in - Variable 3.5 mph - N/A   Unknown
2:53 AM 62.1 °F 61.0 °F 96% 29.78 in 10.0 mi Calm Calm - N/A   Mostly Cloudy
3:53 AM 62.1 °F 60.1 °F 93% 29.77 in 10.0 mi SSW 3.5 mph - N/A   Overcast
4:53 AM 62.1 °F 60.1 °F 93% 29.78 in 10.0 mi Calm Calm - 0.00 in   Overcast
5:53 AM 62.1 °F 60.1 °F 93% 29.80 in 10.0 mi Calm Calm - N/A   Overcast
6:53 AM 61.0 °F 59.0 °F 93% 29.83 in 10.0 mi Calm Calm - N/A   Overcast
7:53 AM 59.0 °F 53.1 °F 81% 29.87 in 10.0 mi NNW 11.5 mph 21.9 mph N/A   Overcast
8:53 AM 55.9 °F 46.0 °F 69% 29.93 in 10.0 mi NNW 13.8 mph 23.0 mph N/A   Overcast
9:53 AM 55.9 °F 44.1 °F 64% 29.96 in 10.0 mi North 13.8 mph 27.6 mph N/A   Mostly Cloudy
10:53 AM 57.0 °F 42.1 °F 57% 29.98 in 10.0 mi NW 8.1 mph 17.3 mph N/A   Mostly Cloudy
11:53 AM 61.0 °F 42.1 °F 50% 30.00 in 10.0 mi NNW 13.8 mph 29.9 mph N/A   Partly Cloudy
12:53 PM 61.0 °F 42.1 °F 50% 30.00 in 10.0 mi North 10.4 mph 20.7 mph N/A   Scattered Clouds
1:53 PM 63.0 °F 41.0 °F 45% 30.00 in 10.0 mi NW 15.0 mph 21.9 mph N/A   Clear
2:53 PM 62.1 °F 41.0 °F 46% 30.01 in 10.0 mi North 10.4 mph 19.6 mph N/A   Mostly Cloudy
3:53 PM 61.0 °F 35.1 °F 38% 30.02 in 10.0 mi NNW 11.5 mph 24.2 mph N/A   Mostly Cloudy
4:53 PM 61.0 °F 39.0 °F 44% 30.04 in 10.0 mi NNW 9.2 mph 18.4 mph N/A   Overcast
5:53 PM 59.0 °F 33.1 °F 38% 30.07 in 10.0 mi NW 9.2 mph 20.7 mph N/A   Partly Cloudy
6:53 PM 57.0 °F 34.0 °F 42% 30.08 in 10.0 mi NNW 11.5 mph 17.3 mph N/A   Clear
7:53 PM 55.0 °F 33.1 °F 43% 30.11 in 10.0 mi NW 5.8 mph - N/A   Clear
8:53 PM 53.1 °F 30.9 °F 43% 30.13 in 10.0 mi NNW 6.9 mph 17.3 mph N/A   Clear
9:53 PM 52.0 °F 30.9 °F 45% 30.15 in 10.0 mi NW 9.2 mph - N/A   Clear
10:53 PM 50.0 °F 30.9 °F 48% 30.17 in 10.0 mi NE 3.5 mph - N/A   Clear
11:53 PM 48.0 °F 30.9 °F 52% 30.17 in 10.0 mi Variable 4.6 mph - N/A   Clear